Hurricane Symbol View the latest observations near Atlantic Remnants Of Alberto.

Station WIXA2 - Whittier AMHS, AK Image indicating link to RSS feed of recent meteorological observations for station WIXA2


Conditions at WIXA2 as of
(12:54 pm AKDT)
2054 GMT on 06/20/2024:
     

Click on the graph icon in the table below to see a time series plot of the last five days of that observation.

5-day plot - Wind Direction Wind Direction (WDIR):NNE ( 20 deg true )
5-day plot - Wind Speed Wind Speed (WSPD): 3 kts
5-day plot - Wind Gust Wind Gust (GST): 4 kts
5-day plot - Atmospheric Pressure Atmospheric Pressure (PRES):29.99 in
5-day plot - Air Temperature Air Temperature (ATMP): 55.0 °F
5-day plot - Wind Speed at 10 Meters Wind Speed at 10 meters (WSPD10M): 4 kts
5-day plot - Wind Speed at 20 Meters Wind Speed at 20 meters (WSPD20M): 4 kts
5-day plot -  Wind Speed, Wind Gust and Atmospheric Pressure Combined plot of Wind Speed, Gust, and Air Pressure
Previous observations
TIME
(AKDT)
5-day plot - Wind Direction
WDIR
 
5-day plot - Wind Speed
WSPD
kts
5-day plot - Wind Gust
GST
kts
5-day plot - Wave Height
WVHT
ft
5-day plot - Dominant Wave Period
DPD
sec
5-day plot - Average Wave Period
APD
sec
5-day plot - Mean Wave Direction
MWD
 
5-day plot - Atmospheric Pressure
PRES
in
5-day plot - Pressure Tendency
PTDY
in
5-day plot - Air Temperature
ATMP
°F
5-day plot - Water Temperature
WTMP
°F
5-day plot - Dew Point
DEWP
°F
5-day plot - Salinity
SAL
psu
5-day plot - Visibility
VIS
nmi
5-day plot - Tide (above MLLW)
TIDE
ft
2024-06-20 12:45 pm N 3 4----29.99- 54.7-----
2024-06-20 12:34 pm N 3 5----29.99- 54.9-----
2024-06-20 12:14 pmNNE 2 7----29.99- 55.0-----
2024-06-20 12:05 pm NE 1 4----29.99- 54.9-----
2024-06-20 11:44 am NE 3 3----29.99- 54.1-----
2024-06-20 11:35 amENE 4 5----29.99- 54.0-----
2024-06-20 11:25 am NE 3 4----30.00- 54.3-----
2024-06-20 11:15 am NE 3 5----30.00- 54.9-----
2024-06-20 11:05 am N 1 3----30.00- 55.2-----
2024-06-20 10:55 am N 1 3----30.00- 55.4-----
2024-06-20 10:44 am- 0 1----30.00- 55.8-----
2024-06-20 10:34 am- 0 2----30.01- 55.0-----
2024-06-20 10:25 am- 0 2----30.01- 54.1-----
2024-06-20 10:14 am E 1 2----30.00- 53.1-----
2024-06-20 10:04 am NE 2 2----30.00- 52.5-----
2024-06-20 09:55 am N 3 4----30.00- 52.5-----
2024-06-20 09:44 amNNE 2 3----30.01- 52.9-----
2024-06-20 09:35 am NE 2 3----30.00- 52.5-----
2024-06-20 09:25 amNNE 2 2----30.00- 52.7-----
2024-06-20 09:15 am NE 2 2----30.00- 52.3-----
2024-06-20 09:05 am N 2 2----30.00- 52.5-----
2024-06-20 08:55 amNNE 1 2----30.00- 52.3-----
2024-06-20 08:45 am N 1 2----30.00- 52.2-----
2024-06-20 08:35 am N 1 2----30.01- 52.0-----
2024-06-20 08:25 amNNE 1 2----30.01- 51.6-----
2024-06-20 08:15 am N 2 3----30.01- 51.1-----
2024-06-20 08:05 am NW 3 4----30.01- 51.1-----
2024-06-20 07:55 am NW 2 4----30.01- 51.6-----
2024-06-20 07:44 amSSW 1 2----30.01- 51.6-----
2024-06-20 07:34 am- 0 2----30.01- 51.3-----
2024-06-20 07:24 am- 0 1----30.01- 50.9-----
2024-06-20 07:14 am- 0 1----30.01- 50.9-----
2024-06-20 07:05 am N 1 2----30.01- 50.5-----
2024-06-20 06:55 am E 1 2----30.01- 50.4-----
2024-06-20 06:45 amNNW 2 3----30.01- 50.0-----
2024-06-20 06:34 amWNW 2 3----30.01- 50.5-----
2024-06-20 06:24 am- 0 1----30.01- 50.9-----
2024-06-20 06:14 am- 0 2----30.01- 50.5-----
2024-06-20 06:05 amNNE 1 2----30.01- 51.1-----
2024-06-20 05:54 am- 0 1----30.01- 51.1-----
2024-06-20 05:45 am S 1 2----30.01- 50.9-----
2024-06-20 05:35 am S 1 2----30.01- 50.9-----
2024-06-20 05:25 am S 1 2----30.01- 50.9-----
2024-06-20 05:05 am S 1 2----30.01- 50.5-----
2024-06-20 04:55 amSSW 1 2----30.01- 50.9-----
2024-06-20 04:44 am S 1 2----30.01- 50.9-----
2024-06-20 04:34 am- 0 2----30.01- 51.3-----
2024-06-20 04:25 am- 0 1----30.01- 51.4-----
2024-06-20 04:14 amNNE 1 2----30.01- 51.3-----
2024-06-20 04:04 am E 1 2----30.01- 51.4-----
2024-06-20 03:54 am- 0 2----30.01- 51.4-----
2024-06-20 03:44 am- 0 2----30.01- 51.4-----
2024-06-20 03:35 am- 0 2----30.01- 51.6-----
2024-06-20 03:24 amSSW 2 3----30.01- 51.6-----
2024-06-20 03:14 amSSE 1 2----30.01- 51.8-----
2024-06-20 03:04 am S 1 2----30.01- 51.6-----
2024-06-20 02:55 amSSW 1 3----30.01- 52.0-----
2024-06-20 02:44 am S 1 2----30.01- 52.0-----
2024-06-20 02:35 am S 2 3----30.01- 51.6-----
2024-06-20 02:25 amSSW 2 3----30.01- 51.8-----
2024-06-20 02:15 amSSW 2 3----30.01- 51.8-----
2024-06-20 02:04 amSSW 2 3----30.01- 52.2-----
2024-06-20 01:54 am S 2 3----30.01- 52.2-----
2024-06-20 01:44 am S 2 3----30.01- 52.7-----
2024-06-20 01:34 am S 1 2----30.01- 52.7-----
2024-06-20 01:25 am S 1 3----30.02- 52.7-----
2024-06-20 01:04 amSSW 3 4----30.02- 52.7-----
2024-06-20 12:54 am S 2 4----30.02- 53.4-----
2024-06-20 12:45 amSSW 2 4----30.02- 53.4-----
2024-06-20 12:34 am S 3 4----30.02- 53.6-----
2024-06-20 12:24 am S 3 5----30.02- 54.0-----
2024-06-20 12:15 amSSE 2 5----30.02- 54.5-----
2024-06-20 12:04 am E 2 3----30.02- 54.7-----
2024-06-19 11:55 pmSSE 2 4----30.02- 54.5-----
2024-06-19 11:45 pm S 2 5----30.02- 54.9-----
2024-06-19 11:35 pmENE 1 3----30.02- 55.2-----
2024-06-19 11:24 pm S 2 4----30.02- 54.9-----
2024-06-19 11:15 pmSSW 3 5----30.01- 54.9-----
2024-06-19 11:04 pm S 3 6----30.01- 55.0-----
2024-06-19 10:54 pm S 4 6----30.01- 55.4-----
2024-06-19 10:44 pm S 4 6----30.01- 55.4-----
2024-06-19 10:34 pm S 4 5----30.02- 55.4-----
2024-06-19 10:24 pmSSW 4 6----30.01- 55.4-----
2024-06-19 10:14 pmSSW 4 7----30.01- 55.2-----
2024-06-19 10:04 pmSSW 4 6----30.02- 55.6-----
2024-06-19 09:55 pmNNE 2 4----30.02- 56.5-----
2024-06-19 09:44 pm W 2 5----30.02- 56.5-----
2024-06-19 09:34 pmWSW 2 3----30.01- 56.3-----
2024-06-19 09:25 pm SW 3 6----30.02- 56.1-----
2024-06-19 09:14 pm SW 3 6----30.02- 56.3-----
2024-06-19 09:05 pmSSW 4 6----30.01- 56.3-----
2024-06-19 08:55 pmWSW 2 6----30.01- 56.7-----
2024-06-19 08:45 pmSSW 2 5----30.01- 57.0-----
2024-06-19 08:35 pm S 3 6----30.01- 57.0-----
2024-06-19 08:25 pmENE 4 6----30.01- 57.2-----
2024-06-19 08:15 pmENE 5 8----30.01- 57.2-----
2024-06-19 08:05 pm E 4 6----30.01- 57.2-----
2024-06-19 07:55 pmENE 4 8----30.01- 57.2-----
2024-06-19 07:45 pmENE 5 7----30.01- 57.2-----
2024-06-19 07:34 pmENE 3 6----30.01- 57.6-----
2024-06-19 07:25 pmENE 3 7----30.01- 57.4-----
2024-06-19 07:14 pmENE 4 7----30.02- 57.4-----
2024-06-19 07:04 pm E 3 7----30.02- 57.6-----
2024-06-19 06:54 pm E 2 5----30.02- 57.4-----
2024-06-19 06:44 pm E 2 6----30.02- 57.4-----
2024-06-19 06:34 pm S 3 5----30.02- 57.4-----
2024-06-19 06:24 pm E 3 9----30.03- 57.2-----
2024-06-19 06:14 pmENE 4 7----30.03- 57.2-----
2024-06-19 06:05 pmENE 5 8----30.03- 57.2-----
2024-06-19 05:54 pmENE 4 8----30.03- 57.2-----
2024-06-19 05:45 pmENE 4 9----30.03- 57.2-----
2024-06-19 05:35 pmENE 5 9----30.03- 57.6-----
2024-06-19 05:24 pm E 4 6----30.03- 57.9-----
2024-06-19 05:14 pmESE 5 7----30.03- 57.9-----
2024-06-19 05:05 pm E 4 8----30.03- 57.7-----
2024-06-19 04:54 pm NE 5 9----30.03- 57.4-----
2024-06-19 04:45 pm NE 6 8----30.03- 57.2-----
2024-06-19 04:35 pm NE 6 8----30.03- 57.4-----
2024-06-19 04:24 pm NE 5 8----30.03- 57.6-----
2024-06-19 04:14 pmNNE 5 7----30.03- 57.4-----
2024-06-19 03:54 pmNNE 6 8----30.03- 57.6-----
2024-06-19 03:44 pmNNE 6 8----30.03- 57.6-----
2024-06-19 03:35 pmNNE 6 8----30.03- 57.4-----
2024-06-19 03:24 pm N 6 7----30.03- 57.4-----
2024-06-19 03:14 pm N 5 6----30.03- 57.6-----
2024-06-19 03:05 pmNNE 4 6----30.03- 57.7-----
2024-06-19 02:55 pm NE 5 7----30.03- 57.7-----
2024-06-19 02:45 pmENE 4 8----30.03- 57.7-----
2024-06-19 02:35 pmENE 4 6----30.03- 57.4-----
2024-06-19 02:25 pmNNE 5 7----30.03- 57.2-----
2024-06-19 02:14 pmNNE 5 6----30.03- 57.0-----
2024-06-19 02:04 pmNNE 4 6----30.03- 57.2-----
2024-06-19 01:55 pmNNE 5 6----30.03- 57.0-----
2024-06-19 01:44 pmNNE 5 7----30.03- 56.8-----
2024-06-19 01:35 pm N 6 8----30.03- 56.7-----
2024-06-19 01:24 pmNNE 7 8----30.03- 56.3-----
2024-06-19 01:15 pmNNE 6 8----30.03- 56.7-----
2024-06-19 01:05 pmNNE 5 7----30.03- 56.5-----
2024-06-19 12:55 pmNNE 6 8----30.03- 56.3-----